Weather History for KGLW - November, 2011

Change the Weather History Date:

Tuesday, November 15, 2011

  Actual Average Record
Temperature  
Mean Temperature 58 °F -  
Max Temperature 62 °F 56 °F 78 °F (1955)
Min Temperature 53 °F 37 °F 14 °F (1969)
Degree Days  
Heating Degree Days 8    
Growing Degree Days 8 (Base 50)    
Moisture  
Dew Point 57 °F    
Average Humidity 97    
Maximum Humidity 100    
Minimum Humidity 79    
Precipitation  
Precipitation 0.52 in - - ()
Sea Level Pressure  
Sea Level Pressure 29.89 in    
Wind  
Wind Speed 5 mph (SE)    
Max Wind Speed 12 mph    
Max Gust Speed 17 mph    
Visibility 8 miles    
Events Rain    
Averages and records for this station are not official NWS values.
T = Trace of Precipitation, MM = Missing Value Source: NWS Daily Summary

Daily Weather History Graph

Daily Weather History Graph

Search for Another Location

Airport or City:

Trip Planner

Search our weather history database for the weather conditions in past years. The results will help you decide how hot, cold, wet, or windy it might be!

Date:

Astronomy

Nov. 15, 2011 Rise Set
Actual Time 6:22 AM CST 4:34 PM CST
Civil Twilight 5:54 AM CST 5:01 PM CST
Nautical Twilight 5:23 AM CST 5:33 PM CST
Astronomical Twilight 4:52 AM CST 6:04 PM CST
Moon 8:42 PM CST (11/15) 10:20 AM CST (11/15)
Length of Visible Light 11h 07m
Length of Day
10h 12m
Waning Gibbous, 79% of the Moon is Illuminated
Nov 15
Waning Gibbous
Nov 18
Last Quarter
Nov 25
New
Dec 2
First Quarter
Dec 10
Full

Hourly Weather History & Observations

Time (CST) Temp. Dew Point Humidity Pressure Visibility Wind Dir Wind Speed Gust Speed Precip Events Conditions
12:15 AM 62.1 °F 55.9 °F 80% 29.85 in 10.0 mi West 8.1 mph - N/A   Overcast
12:35 AM 61.5 °F 55.8 °F 81% 29.87 in 10.0 mi West 5.8 mph - N/A   Mostly Cloudy
12:55 AM 61.5 °F 55.6 °F 81% 29.87 in 10.0 mi WNW 9.2 mph - N/A   Overcast
1:15 AM 61.5 °F 55.0 °F 79% 29.87 in 10.0 mi WNW 11.5 mph - N/A   Overcast
1:35 AM 61.0 °F 54.5 °F 79% 29.88 in 10.0 mi WNW 10.4 mph 17.3 mph N/A   Overcast
2:15 AM 59.9 °F 54.5 °F 82% 29.89 in 10.0 mi WNW 8.1 mph - N/A Rain Light Rain
2:35 AM 59.2 °F 57.2 °F 93% 29.89 in 10.0 mi WNW 5.8 mph - N/A Rain Light Rain
2:55 AM 58.8 °F 59.0 °F 100% 29.89 in 10.0 mi NW 3.5 mph - N/A Rain Rain
3:15 AM 58.6 °F 59.0 °F 100% 29.89 in 10.0 mi Calm Calm - 0.01 in Rain Light Rain
3:35 AM 58.5 °F 58.8 °F 100% 29.89 in 10.0 mi NNW 5.8 mph - 0.01 in   Light Drizzle
3:55 AM 58.1 °F 58.3 °F 100% 29.90 in 10.0 mi NNW 3.5 mph - 0.01 in Rain Rain
4:15 AM 57.4 °F 57.7 °F 100% 29.90 in 7.0 mi North 3.5 mph - 0.03 in Rain Light Rain
4:35 AM 57.0 °F 57.2 °F 100% 29.91 in 10.0 mi North 9.2 mph - 0.04 in Rain Rain
8:15 AM - - N/A% 29.94 in 10.0 mi ESE 4.6 mph - N/A   Overcast
8:35 AM 56.3 °F 56.5 °F 100% 29.96 in 10.0 mi Calm Calm - N/A   Overcast
8:55 AM 56.7 °F 56.8 °F 100% 29.96 in 10.0 mi Calm Calm - N/A Rain Rain
9:15 AM 56.8 °F 57.0 °F 100% 29.96 in 7.0 mi SSE 3.5 mph - 0.02 in Rain Light Rain
9:35 AM 56.7 °F 56.8 °F 100% 29.96 in 10.0 mi SSE 3.5 mph - 0.04 in Rain Light Rain
9:55 AM 56.8 °F 57.2 °F 100% 29.96 in 10.0 mi SSE 4.6 mph - 0.04 in Rain Light Rain
10:15 AM 57.0 °F 57.2 °F 100% 29.93 in 10.0 mi SE 6.9 mph - N/A   Overcast
10:35 AM 57.2 °F 57.2 °F 100% 29.92 in 10.0 mi ESE 6.9 mph - N/A   Overcast
10:55 AM 57.4 °F 57.4 °F 100% 29.91 in 10.0 mi SE 5.8 mph - N/A   Overcast
11:15 AM 57.6 °F 57.7 °F 100% 29.91 in 10.0 mi Calm Calm - N/A   Overcast
11:35 AM 57.7 °F 57.9 °F 100% 29.91 in 10.0 mi Calm Calm - N/A   Overcast
11:55 AM - - N/A% 29.91 in 10.0 mi Calm Calm - N/A   Overcast
12:15 PM 57.7 °F 57.9 °F 100% 29.91 in 2.5 mi SE 4.6 mph - 0.03 in Rain Rain
12:35 PM 57.4 °F 57.6 °F 100% 29.89 in 5.0 mi SE 4.6 mph - 0.05 in   Heavy Drizzle
12:55 PM 57.2 °F 57.4 °F 100% 29.89 in 7.0 mi SE 3.5 mph - 0.05 in   Heavy Drizzle
1:15 PM 57.2 °F 57.4 °F 100% 29.88 in 7.0 mi ESE 4.6 mph - 0.01 in   Light Drizzle
1:55 PM 57.2 °F 57.4 °F 100% 29.88 in 7.0 mi ESE 3.5 mph - 0.01 in   Drizzle
2:15 PM 57.2 °F 57.4 °F 100% 29.88 in 10.0 mi ESE 4.6 mph - N/A Rain Rain
3:15 PM 57.2 °F 57.2 °F 100% 29.88 in 5.0 mi SE 6.9 mph - 0.01 in Rain Rain
3:35 PM 56.8 °F 57.2 °F 100% 29.88 in 5.0 mi SE 3.5 mph - 0.02 in   Heavy Drizzle
3:55 PM 56.8 °F 57.0 °F 100% 29.88 in 4.0 mi Calm Calm - 0.04 in Rain Rain
4:15 PM 56.5 °F 56.7 °F 100% 29.87 in 1.5 mi SE 5.8 mph - 0.13 in Rain Heavy Rain
4:35 PM 56.5 °F 56.7 °F 100% 29.88 in 5.0 mi SE 3.5 mph - 0.22 in Rain Rain
4:55 PM 56.5 °F 56.7 °F 100% 29.88 in 5.0 mi ESE 4.6 mph - 0.27 in Rain Rain
5:15 PM 56.7 °F 56.8 °F 100% 29.88 in 10.0 mi SE 5.8 mph - 0.02 in Rain Rain
5:35 PM 56.8 °F 57.2 °F 100% 29.88 in 10.0 mi ESE 4.6 mph - 0.04 in Rain Light Rain
5:55 PM 56.7 °F 57.0 °F 100% 29.88 in 10.0 mi SE 4.6 mph - 0.04 in Rain Rain
6:15 PM 56.7 °F 56.8 °F 100% 29.88 in 10.0 mi SE 4.6 mph - 0.01 in Rain Rain
6:35 PM 56.7 °F 56.8 °F 100% 29.88 in 10.0 mi Calm Calm - 0.01 in   Drizzle
6:55 PM 56.7 °F 56.8 °F 100% 29.87 in 10.0 mi Calm Calm - 0.01 in Rain Light Rain
7:15 PM 56.7 °F 56.8 °F 100% 29.87 in 10.0 mi Calm Calm - N/A   Light Drizzle
7:35 PM 56.5 °F 56.7 °F 100% 29.85 in 10.0 mi SE 4.6 mph - N/A   Overcast
7:55 PM 56.3 °F 56.5 °F 100% 29.86 in 10.0 mi Calm Calm - N/A   Mostly Cloudy
8:15 PM 56.3 °F 56.5 °F 100% 29.85 in 10.0 mi Calm Calm - N/A   Mostly Cloudy
8:55 PM 54.7 °F - N/A% 29.84 in 4.0 mi Calm Calm - N/A   Haze
9:15 PM 54.5 °F - N/A% 29.85 in 10.0 mi Calm Calm - N/A   Clear
9:35 PM 54.0 °F - N/A% 29.85 in 2.0 mi Calm Calm - N/A   Mostly Cloudy
9:55 PM 53.4 °F - N/A% 29.85 in 3.0 mi Calm Calm - 0.01 in   Mostly Cloudy
10:15 PM 53.2 °F - N/A% 29.85 in 2.5 mi NNE 3.5 mph - N/A   Mostly Cloudy
10:35 PM 53.6 °F - N/A% 29.85 in 7.0 mi Calm Calm - N/A   Overcast
10:55 PM 53.2 °F - N/A% 29.85 in 3.0 mi Calm Calm - N/A   Overcast
11:15 PM 53.4 °F - N/A% 29.84 in 7.0 mi Calm Calm - N/A   Overcast
11:35 PM 54.3 °F - N/A% 29.84 in 7.0 mi Calm Calm - N/A   Overcast
11:55 PM 54.1 °F - N/A% 29.83 in 5.0 mi Calm Calm - N/A   Haze